Weather History for Cape Girardeau, MO

Change the Weather History Date:

Sunday, March 3, 2013

  Actual Average Record
Temperature  
Mean Temperature 31 °F 43 °F  
Max Temperature 41 °F 53 °F 78 °F (1976)
Min Temperature 21 °F 33 °F 9 °F (2014)
Degree Days  
Heating Degree Days 34 22  
Month to date heating degree days 98 67  
Since 1 July heating degree days 3337 3564  
Cooling Degree Days 0 0  
Month to date cooling degree days 0 0  
Year to date cooling degree days 0 0  
Moisture  
Dew Point 21 °F    
Average Humidity 67    
Maximum Humidity 88    
Minimum Humidity 45    
Precipitation  
Precipitation 0.00 in 0.11 in 1.66 in (2008)
Month to date precipitation T 0.34  
Year to date precipitation 6.62 7.22  
Sea Level Pressure  
Sea Level Pressure 30.16 in    
Wind  
Wind Speed 4 mph (SW)    
Max Wind Speed 10 mph    
Max Gust Speed 12 mph    
Visibility 10 miles    
Events      
T = Trace of Precipitation, MM = Missing Value Source: NWS Daily Summary

Daily Weather History Graph

Daily Weather History Graph

Search for Another Location

Airport:

Trip Planner

Search our weather history database for the weather conditions in past years. The results will help you decide how hot, cold, wet, or windy it might be!

Date:

Astronomy

Mar. 03, 2013 Rise Set
Actual Time 6:26 AM CST 5:54 PM CST
Civil Twilight 6:00 AM CST 6:20 PM CST
Nautical Twilight 5:30 AM CST 6:50 PM CST
Astronomical Twilight 4:59 AM CST 7:21 PM CST
Moon No Moon Rise 9:50 AM CST (3/3)
Length of Visible Light 12h 20m
Length of Day
11h 28m
Waning Gibbous, 63% of the Moon is Illuminated
Mar 3
Waning Gibbous
Mar 4
Last Quarter
Mar 11
New
Mar 19
First Quarter
Mar 27
Full

Hourly Weather History & Observations

Time (CST) Temp. Windchill Dew Point Humidity Pressure Visibility Wind Dir Wind Speed Gust Speed Precip Events Conditions
12:53 AM 27.0 °F 23.0 °F 18.0 °F 69% 30.23 in 10.0 mi NW 3.5 mph - N/A   Clear
1:53 AM 26.1 °F 20.5 °F 18.0 °F 71% 30.23 in 10.0 mi NW 4.6 mph - N/A   Clear
2:53 AM 23.0 °F 17.0 °F 17.1 °F 78% 30.22 in 10.0 mi NW 4.6 mph - N/A   Clear
3:53 AM 23.0 °F 18.4 °F 17.1 °F 78% 30.22 in 10.0 mi NW 3.5 mph - N/A   Clear
4:53 AM 24.1 °F 19.7 °F 18.0 °F 77% 30.21 in 10.0 mi West 3.5 mph - N/A   Clear
5:53 AM 23.0 °F 18.4 °F 19.0 °F 85% 30.22 in 10.0 mi WNW 3.5 mph - N/A   Clear
6:53 AM 21.9 °F - 17.1 °F 82% 30.21 in 10.0 mi Calm Calm - N/A   Clear
7:53 AM 26.1 °F 21.9 °F 18.0 °F 71% 30.23 in 10.0 mi NW 3.5 mph - N/A   Clear
8:53 AM 28.9 °F 25.2 °F 19.9 °F 69% 30.24 in 10.0 mi WNW 3.5 mph - N/A   Clear
9:53 AM 30.9 °F 27.5 °F 17.1 °F 57% 30.22 in 10.0 mi SSW 3.5 mph - N/A   Clear
10:53 AM 33.1 °F 30.0 °F 17.1 °F 52% 30.22 in 10.0 mi West 3.5 mph - N/A   Clear
11:53 AM 35.1 °F 30.1 °F 19.0 °F 52% 30.20 in 10.0 mi West 5.8 mph - N/A   Clear
12:53 PM 37.0 °F 34.5 °F 19.9 °F 50% 30.17 in 10.0 mi Variable 3.5 mph - N/A   Mostly Cloudy
1:53 PM 37.9 °F - 19.9 °F 48% 30.13 in 10.0 mi Calm Calm - N/A   Scattered Clouds
2:53 PM 41.0 °F 39.0 °F 21.9 °F 47% 30.12 in 10.0 mi Variable 3.5 mph - N/A   Overcast
3:53 PM 39.0 °F 34.8 °F 23.0 °F 53% 30.11 in 10.0 mi SSE 5.8 mph - N/A   Overcast
4:53 PM 37.9 °F 32.1 °F 24.1 °F 57% 30.09 in 10.0 mi South 8.1 mph - N/A   Overcast
5:53 PM 37.9 °F 33.5 °F 24.1 °F 57% 30.10 in 10.0 mi South 5.8 mph - N/A   Overcast
6:53 PM 35.1 °F 32.2 °F 26.1 °F 70% 30.10 in 10.0 mi SSE 3.5 mph - N/A   Partly Cloudy
7:53 PM 36.0 °F 31.1 °F 28.0 °F 73% 30.10 in 10.0 mi SSE 5.8 mph - N/A   Mostly Cloudy
8:53 PM 37.0 °F 34.5 °F 27.0 °F 67% 30.10 in 10.0 mi SSE 3.5 mph - N/A   Overcast
9:53 PM 36.0 °F 31.1 °F 27.0 °F 70% 30.09 in 10.0 mi SSE 5.8 mph - N/A   Scattered Clouds
10:53 PM 37.0 °F 32.4 °F 26.1 °F 65% 30.08 in 10.0 mi SE 5.8 mph - N/A   Overcast
11:53 PM 37.0 °F 31.6 °F 26.1 °F 65% 30.07 in 10.0 mi ESE 6.9 mph - N/A   Scattered Clouds